User: anonymous   Login
Location: Unspecified
(0.0000°N, 0.0000°E)
Time: 12:14:50
(UTC+00:00)
Language:

APRIZESAT 9 - Orbit

View from above orbital plane
View from above orbital plane
View from above satellite
View from above satellite

Ground track
Ground track

The orbit data is extracted from the following two-line orbital elements,

1 40018U 14033J   21016.11786939  .00000052  00000-0  16045-4 0  9995
2 40018  97.6960 210.4305 0072770  75.0639 285.8611 14.70021607352773
Epoch (UTC): 16 January 2021 02:49:43
Eccentricity: 0.0072770
inclination: 97.6960°
perigee height: 610 km
apogee height: 712 km
right ascension of ascending node: 210.4305°
argument of perigee: 75.0639°
revolutions per day: 14.70021607
mean anomaly at epoch: 285.8611°
orbit number at epoch: 35277

The dashed part of the orbit path shows where the satellite is in the earth's shadow,  

DLR